When you browse on this site, cookies collect data to enhance your experience and personalize the content and advertising you see.
Visit our Privacy Policy to learn more. By continuing to use the site, you agree to this use of cookies and data.
  • In United Kingdom
  • List of Countries
  • For 7 days
  • Water Temperature
  • Satellite Maps
  • Weather Map
  • Weather Widgets
  • user-avatar
    Login

    Hourly Weather Vivsyanyky

    Today, 17 June, Monday

    Time Temperature Precipitation Wind Pressure Humidity
    00:00 +22°C° 0 mm 1 mps 730 mmHg 72%
    01:00 +21°C° 0 mm 1 mps 730 mmHg 74%
    02:00 +21°C° 0 mm 1 mps 730 mmHg 73%
    03:00 +21°C° 0.2 mm 1 mps 730 mmHg 76%
    04:00 +19°C° 0.2 mm 0 mps 730 mmHg 78%
    05:00 +19°C° 0.2 mm 0 mps 731 mmHg 80%
    06:00 +20°C° 0.4 mm 0 mps 731 mmHg 79%
    07:00 +24°C° 0.4 mm 1 mps 731 mmHg 77%
    08:00 +25°C° 0.4 mm 1 mps 732 mmHg 75%
    09:00 +26°C° 1.1 mm 2 mps 732 mmHg 72%
    10:00 +27°C° 1.1 mm 2 mps 732 mmHg 69%
    11:00 +28°C° 1.1 mm 2 mps 732 mmHg 66%
    12:00 +28°C° 1.2 mm 2 mps 732 mmHg 65%
    13:00 +29°C° 1.2 mm 2 mps 732 mmHg 64%
    14:00 +29°C° 1.2 mm 3 mps 732 mmHg 63%
    15:00 +28°C° 0.1 mm 3 mps 732 mmHg 69%
    16:00 +27°C° 0.1 mm 4 mps 732 mmHg 75%
    17:00 +25°C° 0.1 mm 4 mps 732 mmHg 80%
    18:00 +24°C° 0 mm 3 mps 732 mmHg 84%
    19:00 +22°C° 0 mm 3 mps 732 mmHg 88%
    20:00 +21°C° 0 mm 2 mps 732 mmHg 91%
    21:00 +20°C° 0 mm 3 mps 732 mmHg 92%
    22:00 +20°C° 0 mm 3 mps 732 mmHg 94%
    23:00 +19°C° 0 mm 3 mps 732 mmHg 95%

    Tomorrow, 18 June, Tuesday

    Time Temperature Precipitation Wind Pressure Humidity
    00:00 +19°C° 0 mm 3 mps 732 mmHg 95%
    01:00 +18°C° 0 mm 3 mps 732 mmHg 95%
    02:00 +17°C° 0 mm 3 mps 732 mmHg 95%
    03:00 +17°C° 0 mm 3 mps 732 mmHg 95%
    04:00 +17°C° 0 mm 3 mps 732 mmHg 96%
    05:00 +17°C° 0 mm 4 mps 732 mmHg 96%
    06:00 +18°C° 0 mm 4 mps 733 mmHg 93%
    07:00 +19°C° 0 mm 3 mps 733 mmHg 90%
    08:00 +20°C° 0 mm 3 mps 733 mmHg 87%
    09:00 +21°C° 0 mm 3 mps 733 mmHg 83%
    10:00 +22°C° 0 mm 3 mps 733 mmHg 78%
    11:00 +24°C° 0 mm 3 mps 734 mmHg 74%
    12:00 +25°C° 0 mm 3 mps 733 mmHg 71%
    13:00 +25°C° 0 mm 3 mps 733 mmHg 69%
    14:00 +26°C° 0 mm 3 mps 733 mmHg 67%
    15:00 +25°C° 0 mm 3 mps 733 mmHg 69%
    16:00 +25°C° 0 mm 3 mps 733 mmHg 70%
    17:00 +25°C° 0 mm 3 mps 732 mmHg 71%
    18:00 +24°C° 0 mm 2 mps 732 mmHg 78%
    19:00 +21°C° 0 mm 2 mps 732 mmHg 84%
    20:00 +20°C° 0 mm 2 mps 732 mmHg 90%
    21:00 +19°C° 0 mm 2 mps 732 mmHg 91%
    22:00 +19°C° 0 mm 2 mps 732 mmHg 92%
    23:00 +18°C° 0 mm 2 mps 732 mmHg 93%

    Day after tomorrow, 19 June, Wednesday

    Time Temperature Precipitation Wind Pressure Humidity
    00:00 +18°C° 0 mm 2 mps 732 mmHg 93%
    01:00 +17°C° 0 mm 2 mps 732 mmHg 93%
    02:00 +17°C° 0 mm 2 mps 732 mmHg 93%
    03:00 +17°C° 0 mm 2 mps 732 mmHg 94%
    04:00 +17°C° 0 mm 2 mps 732 mmHg 94%
    05:00 +17°C° 0 mm 2 mps 732 mmHg 95%
    06:00 +18°C° 0 mm 2 mps 732 mmHg 91%
    07:00 +20°C° 0 mm 2 mps 732 mmHg 87%
    08:00 +22°C° 0 mm 3 mps 733 mmHg 83%
    09:00 +24°C° 0 mm 3 mps 733 mmHg 78%
    10:00 +25°C° 0 mm 2 mps 733 mmHg 73%
    11:00 +26°C° 0 mm 2 mps 733 mmHg 69%
    12:00 +26°C° 0 mm 2 mps 732 mmHg 68%
    13:00 +26°C° 0 mm 3 mps 732 mmHg 67%
    14:00 +27°C° 0 mm 3 mps 732 mmHg 66%
    15:00 +26°C° 0.1 mm 3 mps 732 mmHg 68%
    16:00 +26°C° 0.1 mm 3 mps 732 mmHg 70%
    17:00 +26°C° 0.1 mm 3 mps 731 mmHg 72%
    18:00 +25°C° 0 mm 2 mps 731 mmHg 77%
    19:00 +24°C° 0 mm 2 mps 731 mmHg 81%
    20:00 +21°C° 0 mm 2 mps 731 mmHg 86%
    21:00 +20°C° 0 mm 2 mps 731 mmHg 88%
    22:00 +20°C° 0 mm 2 mps 731 mmHg 91%
    23:00 +19°C° 0 mm 2 mps 731 mmHg 93%

    20 June, Thursday

    Time Temperature Precipitation Wind Pressure Humidity
    00:00 +18°C° 0 mm 2 mps 731 mmHg 94%
    01:00 +18°C° 0 mm 2 mps 731 mmHg 94%
    02:00 +18°C° 0 mm 2 mps 731 mmHg 94%
    03:00 +18°C° 0 mm 2 mps 731 mmHg 95%
    04:00 +18°C° 0 mm 2 mps 731 mmHg 95%
    05:00 +18°C° 0 mm 2 mps 731 mmHg 95%
    06:00 +19°C° 0 mm 2 mps 731 mmHg 92%
    07:00 +21°C° 0 mm 3 mps 731 mmHg 89%
    08:00 +22°C° 0 mm 3 mps 731 mmHg 85%
    09:00 +24°C° 0.1 mm 3 mps 731 mmHg 80%
    10:00 +25°C° 0.1 mm 3 mps 732 mmHg 75%
    11:00 +27°C° 0.1 mm 3 mps 732 mmHg 70%
    12:00 +27°C° 0.2 mm 4 mps 731 mmHg 70%
    13:00 +27°C° 0.2 mm 4 mps 731 mmHg 70%
    14:00 +27°C° 0.2 mm 4 mps 731 mmHg 69%
    15:00 +27°C° 0.2 mm 4 mps 731 mmHg 71%
    16:00 +27°C° 0.2 mm 4 mps 731 mmHg 73%
    17:00 +27°C° 0.2 mm 4 mps 730 mmHg 75%
    18:00 +25°C° 0 mm 3 mps 731 mmHg 79%
    19:00 +24°C° 0 mm 3 mps 731 mmHg 83%
    20:00 +22°C° 0 mm 3 mps 731 mmHg 87%
    21:00 +21°C° 0 mm 3 mps 731 mmHg 89%
    22:00 +20°C° 0 mm 3 mps 731 mmHg 91%
    23:00 +19°C° 0 mm 3 mps 731 mmHg 92%

    21 June, Friday

    Time Temperature Precipitation Wind Pressure Humidity
    00:00 +19°C° 0 mm 3 mps 731 mmHg 91%
    01:00 +18°C° 0 mm 3 mps 731 mmHg 90%
    02:00 +18°C° 0 mm 3 mps 731 mmHg 89%
    03:00 +17°C° 0 mm 3 mps 731 mmHg 88%
    04:00 +17°C° 0 mm 3 mps 731 mmHg 88%
    05:00 +17°C° 0 mm 3 mps 731 mmHg 88%
    06:00 +19°C° 0 mm 3 mps 732 mmHg 85%
    07:00 +20°C° 0 mm 3 mps 732 mmHg 81%
    08:00 +22°C° 0 mm 3 mps 732 mmHg 78%
    09:00 +25°C° 0 mm 3 mps 732 mmHg 74%
    10:00 +26°C° 0 mm 3 mps 732 mmHg 70%
    11:00 +27°C° 0 mm 4 mps 733 mmHg 65%
    12:00 +28°C° 0 mm 4 mps 732 mmHg 64%
    13:00 +28°C° 0 mm 4 mps 732 mmHg 64%
    14:00 +28°C° 0 mm 4 mps 732 mmHg 63%
    15:00 +28°C° 0 mm 4 mps 732 mmHg 65%
    16:00 +28°C° 0 mm 4 mps 732 mmHg 67%
    17:00 +28°C° 0 mm 4 mps 732 mmHg 69%
    18:00 +26°C° 0 mm 3 mps 732 mmHg 72%
    19:00 +24°C° 0 mm 3 mps 732 mmHg 75%
    20:00 +23°C° 0 mm 2 mps 732 mmHg 79%
    21:00 +21°C° 0 mm 3 mps 732 mmHg 79%
    22:00 +20°C° 0 mm 3 mps 732 mmHg 79%
    23:00 +19°C° 0 mm 3 mps 732 mmHg 79%

    22 June, Saturday

    Time Temperature Precipitation Wind Pressure Humidity
    00:00 +19°C° 0 mm 3 mps 732 mmHg 83%
    01:00 +18°C° 0 mm 3 mps 732 mmHg 86%
    02:00 +18°C° 0 mm 3 mps 732 mmHg 90%
    03:00 +18°C° 0 mm 3 mps 732 mmHg 89%
    04:00 +18°C° 0 mm 3 mps 732 mmHg 88%
    05:00 +18°C° 0 mm 3 mps 731 mmHg 87%
    06:00 +19°C° 0 mm 3 mps 732 mmHg 84%
    07:00 +21°C° 0 mm 3 mps 732 mmHg 81%
    08:00 +23°C° 0 mm 4 mps 732 mmHg 78%
    09:00 +25°C° 0 mm 4 mps 732 mmHg 72%
    10:00 +26°C° 0 mm 4 mps 732 mmHg 66%
    11:00 +28°C° 0 mm 5 mps 732 mmHg 60%
    12:00 +28°C° 0 mm 5 mps 732 mmHg 60%
    13:00 +28°C° 0 mm 5 mps 732 mmHg 60%
    14:00 +29°C° 0 mm 5 mps 731 mmHg 60%
    15:00 +28°C° 0 mm 5 mps 731 mmHg 63%
    16:00 +28°C° 0 mm 4 mps 731 mmHg 67%
    17:00 +28°C° 0 mm 4 mps 731 mmHg 70%
    18:00 +26°C° 0 mm 4 mps 730 mmHg 73%
    19:00 +23°C° 0 mm 4 mps 730 mmHg 75%
    20:00 +22°C° 0 mm 3 mps 730 mmHg 78%
    21:00 +21°C° 0 mm 3 mps 730 mmHg 78%
    22:00 +20°C° 0 mm 3 mps 730 mmHg 77%
    23:00 +20°C° 0 mm 3 mps 730 mmHg 76%
    Show more